User: anonymous   Login
Location: Castiglione Fibocchi
(43.5333°N, 11.7667°E)
Time: 07:27:04
(UTC+00:00)
Language:

Cosmos 1844 - Orbit

View from above orbital plane
View from above orbital plane
View from above satellite
View from above satellite

Ground track
Ground track

The orbit data is extracted from the following two-line orbital elements,

1 17973U 87041A   20295.76932077 -.00000008  00000-0  21240-4 0  9998
2 17973  70.8985 216.8193 0028797  91.8267 268.6153 14.14106295725976
Epoch (UTC): 21 October 2020 18:27:49
Eccentricity: 0.0028797
inclination: 70.8985°
perigee height: 824 km
apogee height: 866 km
right ascension of ascending node: 216.8193°
argument of perigee: 91.8267°
revolutions per day: 14.14106295
mean anomaly at epoch: 268.6153°
orbit number at epoch: 72597

The dashed part of the orbit path shows where the satellite is in the earth's shadow,  

DLR